Regional Weather Roundup
Issued by NWS

Home | Current Version | Previous Version | Text Only | Print | Product List | Glossary On
Versions: 1 2 3 4 5 6 7 8 9 10 11 12 13 14 15 16 17 18 19 20 21 22 23 24 25 26 27 28 29 30 31 32 33 34 35 36 37 38 39 40 41 42 43 44 45 46 47 48 49 50
000
ASUS43 KDTX 291010
RWRMI
MICHIGAN HOURLY REGIONAL WEATHER ROUNDUP
NATIONAL WEATHER SERVICE DETROIT/PONTIAC MI
600 AM EDT SAT APR 29 2017

NOTE: "FAIR" INDICATES FEW OR NO CLOUDS BELOW 12,000 FEET WITH NO
SIGNIFICANT WEATHER AND/OR OBSTRUCTION TO VISIBILITY.

MIZ047>049-052>055-059>063-066>070-074>076-081>083-291100-
SOUTHEAST LOWER MICHIGAN

CITY           SKY/WX    TMP DP  RH WIND       PRES   REMARKS
ADRIAN         CLOUDY    53  52  96 N7        30.02R
ALMA           CLOUDY    44  38  80 N7        30.09S
ANN ARBOR      CLOUDY    54  49  83 N3        30.01R
BAD AXE        CLOUDY    40  32  74 N9        30.10S WCI  33
CARO           CLOUDY    42  36  78 NE6       30.10R
DETROIT CITY   CLOUDY    45  39  79 NE8       30.04R
DETROIT        CLOUDY    55  52  89 CALM      30.02S
FLINT          CLOUDY    45  36  70 NE12      30.07R
GROSSE ILE     CLOUDY    55  51  89 NE6       30.00S
HILLSDALE      CLOUDY    52  45  76 N5        30.01R
HOWELL         CLOUDY    45  37  75 N10       30.05R

CITY           SKY/WX    TMP DP  RH WIND       PRES   REMARKS
JACKSON        CLOUDY    48  41  76 N9G22     30.04R
LAMBERTVILLE   CLOUDY    54  53  97 CALM      30.01R FOG
LANSING        CLOUDY    45  39  79 NE8       30.08R
LAPEER         CLOUDY    43  35  73 NE5       30.08S
MASON          CLOUDY    46  40  81 NE13      30.06R
MONROE         CLOUDY    55  52  90 CALM      30.01R
MT. CLEMENS    CLOUDY    43  35  74 N15G24    30.04R
PONTIAC        CLOUDY    44  37  76 N14       30.03R
PORT HOPE        N/A     41  34  76 N13G20    30.10F
PORT HURON     CLOUDY    39  32  75 N10       30.08R WCI  32
TRI CITIES     CLOUDY    44  38  79 N13       30.10R
MIDLAND        CLOUDY    43  35  73 CALM      30.09F
TROY           CLOUDY    46  36  68 N14G21    30.06R
SAGINAW HB     CLOUDY    45  36  70 N7        30.09R
$$
MIZ043>046-050>051-056>058-064>065-071>073-077>080-291100-
SOUTHWEST LOWER MICHIGAN

CITY           SKY/WX    TMP DP  RH WIND       PRES   REMARKS
BATTLE CREEK   CLOUDY    49  41  74 NE15      30.05R
BENTON HARBOR  MOCLDY    48  40  73 VRB7      30.04R
BIG RAPIDS     LGT RAIN  42  32  68 N9        30.10S
COLDWATER      CLOUDY    51  47  86 N8        30.01R
FREMONT        CLOUDY    44  31  61 N5        30.10S
HOLLAND        CLOUDY    46  39  76 N7        30.09R
GRAND RAPIDS   CLOUDY    45  42  89 N9        30.07R
IONIA          FAIR      44  39  83 N9        30.07R
KALAMAZOO      CLOUDY    49  38  65 N12G18    30.04R
LUDINGTON      PTCLDY    39  33  78 N5        30.15R
MARSHALL       CLOUDY    49  43  80 N7        30.03R
MOUNT PLEASANT CLOUDY    42  33  70 N8        30.09F
MUSKEGON       CLOUDY    46  34  62 N10       30.10S
SOUTH HAVEN    CLOUDY    45  41  88 NE9       30.05R
$$
MIZ016>042-291100-
NORTHERN LOWER MICHIGAN

CITY           SKY/WX    TMP DP  RH WIND       PRES   REMARKS
ALPENA         CLOUDY    38  29  70 N10       30.15R WCI  31
BEAVER ISLAND  CLEAR     35  27  73 N6        30.15R WCI  30
BELLAIRE       MOCLDY    36  26  68 CALM      30.21R
CADILLAC       CLOUDY    35  31  85 N7        30.11F WCI  29
CHARLEVOIX     CLEAR     35  28  74 N7        30.19R WCI  29
FRANKFORT      MOCLDY    36  27  68 N3        30.19R
GAYLORD        CLOUDY    36  23  59 W3        30.15R
GRAYLING       CLOUDY    33  28  81 NW6       30.13R WCI  27
HARBOR SPRINGS CLEAR     33  25  72 CALM      30.15R
HOUGHTON LAKE  CLOUDY    39  29  67 N8        30.11R WCI  33
MANISTEE       CLEAR     38  30  73 N7        30.15R WCI  33
OSCODA         MIX PCPN  40  36  86 W3        30.12F
PELLSTON         N/A    N/A N/A N/A MISG      30.13S
ROGERS CITY    CLOUDY    35  25  67 NW7       30.13R WCI  29
TRAVERSE CITY  CLOUDY    38  28  67 N8        30.17R WCI  32
$$
MIZ007>008-015-291100-
EASTERN UPPER MICHIGAN

CITY           SKY/WX    TMP DP  RH WIND       PRES   REMARKS
KINROSS        CLOUDY    35  26  69 NW14G20   30.10R WCI  26
MACKINAC ISLAN CLOUDY    34  26  71 NW9       30.10F WCI  27
NEWBERRY       CLOUDY    33  26  76 NW13G20   30.11R WCI  24
S. S. MARIE    CLOUDY    36  26  67 NW12G25   30.07S WCI  28
MUNISING         N/A     37  29  72 N15       30.15R WCI  28
$$
MIZ004>006-011>014-085-291100-
CENTRAL UPPER MICHIGAN

CITY           SKY/WX    TMP DP  RH WIND       PRES   REMARKS
MANISTIQUE     CLEAR     28  27  96 W3        30.14R
ESCANABA       CLEAR     29  26  89 NW3       30.17R
MENOMINEE      CLEAR     31  27  85 N3        30.20R
SAWYER-GWINN   CLEAR     30  24  79 N9        30.15R WCI  21
$$
MIZ001>003-009>011-084-291100-
WESTERN UPPER MICHIGAN

CITY           SKY/WX    TMP DP  RH WIND       PRES   REMARKS
IRON MOUNTAIN  CLEAR     29  24  82 NW8       30.15R WCI  21
HOUGHTON       CLEAR     33  22  63 N10       30.18R WCI  25
COPPER HARBOR    N/A     36  26  67 NE16      30.20R WCI  26
IRONWOOD       CLEAR     24  23  96 CALM      30.20F
$$

ABBREVIATIONS USED IN REMARKS
   TC - TEMPERATURE IN CELSIUS
  WCI - WIND CHILL INDEX
   HX - HEAT INDEX
  VSB - VISIBILITY





USA.gov is the U.S. government's official web portal to all federal, state and local government web resources and services.